Regional Weather Roundup
Issued by NWS

Home | Current Version | Previous Version | Graphics & Text | Print | Product List | Glossary Off
Versions: 1 2 3 4 5 6 7 8 9 10 11 12 13 14 15 16 17 18 19 20 21 22 23 24 25 26 27 28 29 30 31 32 33 34 35 36 37 38 39 40 41 42 43 44 45 46 47 48 49 50

000
ASUS43 KMKX 160859
RWRWI

WISCONSIN REGIONAL WEATHER ROUNDUP
NATIONAL WEATHER SERVICE MILWAUKEE/SULLIVAN WI
300 AM CST SAT DEC 16 2017

NOTE: "FAIR" INDICATES FEW OR NO CLOUDS BELOW 12,000 FEET WITH NO
SIGNIFICANT WEATHER AND/OR OBSTRUCTIONS TO VISIBILITY.

WIZ001-002-006>008-014>016-023>028-161000-
NORTHWEST WISCONSIN

CITY           SKY/WX    TMP DP  RH WIND       PRES   REMARKS
SUPERIOR ARPT  CLOUDY    16  13  88 SE5       29.81R WCI   9
ASHLAND        CLOUDY    10   5  80 SE3       29.84R
HAYWARD        LGT SNOW  16  11  80 E6        29.77R WCI   7
SIREN          LGT SNOW  19  17  89 E6        29.74R WCI  11
CUMBERLAND     LGT SNOW  19  18  93 E7        29.71S VSB 1   WCI  10
RICE LAKE      LGT SNOW  20  18  91 CALM      29.74S
CHETEK         CLOUDY    19  17  90 E3        29.74R
LADYSMITH      LGT SNOW  18  16  89 E7        29.77R WCI   9
EAU CLAIRE     LGT SNOW  23  21  93 NE7       29.73R FOG     WCI  15
MENOMONIE      CLOUDY    25  23  91 E7        29.72S WCI  17
NEW RICHMOND   CLOUDY    24  21  88 E9        29.69S WCI  14
OSCEOLA        FLURRIES  25  22  89 E7        29.72F WCI  17
$$

WIZ003>005-009-010-017-018-161000-
NORTH CENTRAL WISCONSIN

CITY           SKY/WX    TMP DP  RH WIND       PRES   REMARKS
MANITOWISH WTR CLOUDY     6   5  94 E3        29.78R
ARBOR VITAE    CLOUDY    11   7  83 E3        29.77R
WOODRUFF       CLOUDY    11   7  83 E3        29.77R
RHINELANDER    LGT SNOW  11   7  84 E7        29.78R FOG     WCI   0
EAGLE RIVER    PTCLDY     9   4  78 CALM      29.78R
LAND O LAKES   CLOUDY    10   6  84 CALM      29.80R
PHILLIPS       LGT SNOW  13  10  90 E6        29.76R WCI   3
TOMAHAWK       LGT SNOW  11   8  87 CALM      29.79R
MEDFORD        LGT SNOW  15  12  88 E9        29.74S WCI   3
MERRILL        LGT SNOW  14  11  88 E5        29.80R WCI   6
$$

WIZ029-030-035-036-043>047-161000-
CENTRAL WISCONSIN

CITY           SKY/WX    TMP DP  RH WIND       PRES   REMARKS
WAUSAU         LGT SNOW  15  11  83 E9        29.78R FOG     WCI   3
MOSINEE        LGT SNOW  18  16  93 E10       29.79R WCI   6
MARSHFIELD     LGT SNOW  19  17  92 E10       29.75R FOG     WCI   7
STEVENS POINT  LGT SNOW  16  14  94 E7        29.80R WCI   6
WAUPACA        LGT SNOW  19  15  84 NE6       29.83R WCI  11
WAUTOMA        FLURRIES  20  17  88 NE10      29.81R WCI   9
WISC RAPIDS    CLOUDY    20  16  84 E9        29.79R WCI   9
CAMP DOUGLAS   NOT AVBL
$$

WIZ011>013-019>022-031-037>040-048>050-161000-
NORTHEAST WISCONSIN

CITY           SKY/WX    TMP DP  RH WIND       PRES   REMARKS
ANTIGO         LGT SNOW  11   8  85 E7        29.80R WCI   0
SHAWANO        LGT SNOW  16  12  84 NE3       29.85R
OCONTO         CLOUDY    11   8  85 CALM      29.87R
STURGEON BAY   CLOUDY    16   8  71 CALM      29.87R
GREEN BAY      LGT SNOW  17  13  84 NE6       29.86R FOG     WCI   9
MANITOWOC      LGT SNOW  17  14  88 N6        29.86S FOG     WCI   9
APPLETON       LGT SNOW  18  12  79 E9        29.81R WCI   6
CLINTONVILLE   LGT SNOW  16  12  86 NE5       29.84R WCI   9
OSHKOSH        LGT SNOW  20  17  88 NE7       29.82R FOG     WCI  11
$$

WIZ032>034-041-042-053>061-161000-
SOUTHWEST WISCONSIN

CITY           SKY/WX    TMP DP  RH WIND       PRES   REMARKS
LA CROSSE      CLOUDY    32  28  85 SE5       29.72R WCI  27
SPARTA         CLOUDY    28  27  95 CALM      29.73S
VIROQUA        PTCLDY    30  28  92 CALM      29.69F
BOSCOBEL       CLOUDY    34  25  69 S7        29.73F WCI  28
PRAIRIE DU CHI PTCLDY    37  22  54 S3        29.72F
PLATTEVILLE    PTCLDY    34  26  72 S10       29.75F WCI  26
$$

WIZ056-057-062-063-064-067-068-161000-
SOUTH CENTRAL WISCONSIN

CITY           SKY/WX    TMP DP  RH WIND       PRES   REMARKS
REEDSBURG      CLOUDY    29  28  96 E5        29.74S WCI  24
BARABOO/DELLS  CLOUDY    28  27  93 NE3       29.75S
LONE ROCK      NOT AVBL
MINERAL POINT  CLOUDY    34  27  75 S7        29.74S WCI  28
MADISON        CLOUDY    32  24  72 S6        29.77F WCI  26
MIDDLETON      CLOUDY    36  24  64 S5        29.76S WCI  32
WATERTOWN      CLOUDY    30  28  91 CALM      29.78S
MONROE         PTCLDY    32  23  69 S14       29.77S WCI  22
JANESVILLE     CLOUDY    36  23  60 SW8       29.79S WCI  29
$$

WIZ051-052-058>065-066-070>072-161000-
SOUTHEAST WISCONSIN

CITY           SKY/WX    TMP DP  RH WIND       PRES   REMARKS
MILWAUKEE      CLOUDY    35  26  69 SW10      29.80F WCI  27
WAUKESHA       CLOUDY    30  25  80 CALM      29.80S
MILWAUKEE/TIMM CLOUDY    30  27  86 CALM      29.81S
RACINE         CLOUDY    35  25  66 S6        29.82F WCI  30
BURLINGTON     CLOUDY    34  25  71 SW9       29.80F WCI  26
KENOSHA        CLOUDY    36  23  59 SW9       29.81F WCI  29
FOND DU LAC    LGT SNOW  25  21  85 NE6       29.81R FOG     WCI  18
SHEBOYGAN      LGT SNOW  19  18  95 NE7       29.83S FOG     WCI  10
WEST BEND      LGT SNOW  25  25 100 NE3       29.81R
JUNEAU         CLOUDY    28  27  95 E6        29.79S WCI  21
$$

LSZ147-162-161000-
LAKE SUPERIOR

STATION/POSITION TIME  TEMP    WIND        PRES    WAVE
                       AIR SEA DIR/SP/G            HT/PER
                 (UTC) (F)     (DEG/KT/KT) (MB)    (FT/S)
DEVILS ISLAND    0800   21      80/ 15/ 16 1011.0R
SAXON HARBOR     0840   14                 1010.5R
$$

LMZ867-665-643>646-161000-
LAKE MICHIGAN

STATION/POSITION TIME  TEMP    WIND        PRES    WAVE
                       AIR SEA DIR/SP/G            HT/PER
                 (UTC) (F)     (DEG/KT/KT) (MB)    (FT/S)
NORTHPORT PIER   0840   20      30/  3/  8 1011.5R
KEWAUNEE LAKESHO 0830   18     340/  5/  7 1010.4R
SHEBOYGAN LAKESH 0800   25      40/  9/  9 1011.1R
PORT WASHINGTON  0840   27      10/  3/  4 1011.2R
MILWAUKEE LAKESH 0830   33     200/  1/  2   N/A
KENOSHA   LAKESH 0800   37     220/  8/ 12 1010.2
$$

TC  - TEMPERATURE IN CELSIUS
VSB - VISIBILITY IN STATUTE MILES
WCI - WIND CHILL INDEX
HX  - HEAT INDEX





USA.gov is the U.S. government's official web portal to all federal, state and local government web resources and services.